Time,TemperatureF,DewpointF,PressureIn,WindDirection,WindDirectionDegrees,WindSpeedMPH,WindSpeedGustMPH,Humidity,HourlyPrecipIn,Conditions,Clouds,dailyrainin,SoftwareType,DateUTC
2013-07-17 00:01:00,75.0,72.0,30.28,NE,54,0.0,-999.0,91,-99.99,,,-99.99,,2013-07-17 04:01:00,
2013-07-17 00:22:00,75.0,73.0,30.28,NE,54,0.0,-999.0,92,-99.99,,,-99.99,,2013-07-17 04:22:00,
2013-07-17 00:32:00,74.0,72.0,30.29,NE,54,0.0,-999.0,92,-99.99,,,-99.99,,2013-07-17 04:32:00,
2013-07-17 00:43:00,74.0,72.0,30.29,NE,54,0.0,-999.0,93,-99.99,,,-99.99,,2013-07-17 04:43:00,
2013-07-17 00:53:00,74.0,72.0,30.29,NE,54,0.0,-999.0,93,-99.99,,,-99.99,,2013-07-17 04:53:00,
2013-07-17 01:22:00,74.0,72.0,30.29,NE,54,0.0,-999.0,93,-99.99,,,-99.99,,2013-07-17 05:22:00,
2013-07-17 01:43:00,73.0,71.0,30.29,NE,54,0.0,-999.0,94,-99.99,,,-99.99,,2013-07-17 05:43:00,
2013-07-17 01:52:00,73.0,71.0,30.29,NE,54,0.0,-999.0,94,-99.99,,,-99.99,,2013-07-17 05:52:00,
2013-07-17 02:32:00,73.0,71.0,30.28,NE,54,0.0,-999.0,94,-99.99,,,-99.99,,2013-07-17 06:32:00,
2013-07-17 02:52:00,72.0,70.0,30.28,NE,54,0.0,-999.0,94,-99.99,,,-99.99,,2013-07-17 06:52:00,
2013-07-17 03:01:00,72.0,70.0,30.28,NE,54,0.0,-999.0,94,-99.99,,,-99.99,,2013-07-17 07:01:00,
2013-07-17 03:22:00,72.0,70.0,30.28,NE,54,0.0,-999.0,94,-99.99,,,-99.99,,2013-07-17 07:22:00,
2013-07-17 03:32:00,72.0,70.0,30.27,NE,54,0.0,-999.0,94,-99.99,,,-99.99,,2013-07-17 07:32:00,
2013-07-17 03:52:00,72.0,70.0,30.27,NE,54,0.0,-999.0,94,-99.99,,,-99.99,,2013-07-17 07:52:00,
2013-07-17 04:01:00,72.0,70.0,30.27,NE,54,0.0,-999.0,94,-99.99,,,-99.99,,2013-07-17 08:01:00,
2013-07-17 04:11:00,71.0,69.0,30.28,NE,54,0.0,-999.0,94,-99.99,,,-99.99,,2013-07-17 08:11:00,
2013-07-17 04:43:00,71.0,69.0,30.28,NE,54,0.0,-999.0,95,-99.99,,,-99.99,,2013-07-17 08:43:00,
2013-07-17 04:53:00,71.0,69.0,30.28,NE,54,0.0,-999.0,95,-99.99,,,-99.99,,2013-07-17 08:53:00,
2013-07-17 05:02:00,71.0,69.0,30.28,NE,54,0.0,-999.0,95,-99.99,,,-99.99,,2013-07-17 09:02:00,
2013-07-17 05:12:00,71.0,69.0,30.28,NE,54,0.0,-999.0,95,-99.99,,,-99.99,,2013-07-17 09:12:00,
2013-07-17 05:32:00,71.0,69.0,30.29,NE,54,0.0,-999.0,95,-99.99,,,-99.99,,2013-07-17 09:32:00,
2013-07-17 05:43:00,71.0,69.0,30.29,NE,54,0.0,-999.0,95,-99.99,,,-99.99,,2013-07-17 09:43:00,
2013-07-17 05:52:00,71.0,69.0,30.29,NE,54,0.0,-999.0,95,-99.99,,,-99.99,,2013-07-17 09:52:00,
2013-07-17 06:01:00,71.0,69.0,30.29,NE,54,0.0,-999.0,95,-99.99,,,-99.99,,2013-07-17 10:01:00,
2013-07-17 06:11:00,71.0,69.0,30.29,NE,54,0.0,-999.0,95,-99.99,,,-99.99,,2013-07-17 10:11:00,
2013-07-17 06:22:00,71.0,69.0,30.29,NE,54,0.0,-999.0,95,-99.99,,,-99.99,,2013-07-17 10:22:00,
2013-07-17 06:32:00,71.0,69.0,30.30,NE,54,0.0,-999.0,95,-99.99,,,-99.99,,2013-07-17 10:32:00,
2013-07-17 06:43:00,70.0,68.0,30.30,NE,54,0.0,-999.0,95,-99.99,,,-99.99,,2013-07-17 10:43:00,
2013-07-17 06:52:00,70.0,68.0,30.30,NE,54,0.0,-999.0,95,-99.99,,,-99.99,,2013-07-17 10:52:00,
2013-07-17 07:02:00,70.0,68.0,30.30,NE,54,0.0,-999.0,95,-99.99,,,-99.99,,2013-07-17 11:02:00,
2013-07-17 07:32:00,71.0,70.0,30.31,NE,54,0.0,-999.0,96,-99.99,,,-99.99,,2013-07-17 11:32:00,
2013-07-17 07:52:00,72.0,71.0,30.31,NE,54,0.0,-999.0,96,-99.99,,,-99.99,,2013-07-17 11:52:00,
2013-07-17 08:01:00,72.0,71.0,30.31,NE,54,0.0,-999.0,96,-99.99,,,-99.99,,2013-07-17 12:01:00,
2013-07-17 08:22:00,74.0,72.0,30.31,NE,54,0.0,-999.0,95,-99.99,,,-99.99,,2013-07-17 12:22:00,
2013-07-17 08:32:00,75.0,73.0,30.32,NE,54,0.0,-999.0,95,-99.99,,,-99.99,,2013-07-17 12:32:00,
2013-07-17 08:42:00,76.0,74.0,30.32,NE,54,0.0,-999.0,93,-99.99,,,-99.99,,2013-07-17 12:42:00,
2013-07-17 08:53:00,76.0,74.0,30.32,NE,54,0.0,-999.0,93,-99.99,,,-99.99,,2013-07-17 12:53:00,
2013-07-17 09:22:00,80.0,75.0,30.32,NE,54,0.0,-999.0,84,-99.99,,,-99.99,,2013-07-17 13:22:00,
2013-07-17 09:43:00,81.0,75.0,30.32,NE,54,0.0,-999.0,82,-99.99,,,-99.99,,2013-07-17 13:43:00,
2013-07-17 09:52:00,81.0,75.0,30.32,NE,54,0.0,-999.0,82,-99.99,,,-99.99,,2013-07-17 13:52:00,
2013-07-17 10:02:00,81.0,75.0,30.32,NE,54,0.0,-999.0,82,-99.99,,,-99.99,,2013-07-17 14:02:00,
2013-07-17 10:11:00,81.0,75.0,30.32,NE,54,0.0,-999.0,82,-99.99,,,-99.99,,2013-07-17 14:11:00,
2013-07-17 10:22:00,84.0,77.0,30.32,NE,54,0.0,-999.0,80,-99.99,,,-99.99,,2013-07-17 14:22:00,
2013-07-17 10:43:00,85.0,76.0,30.32,SW,229,2.0,-999.0,75,-99.99,,,-99.99,,2013-07-17 14:43:00,
2013-07-17 10:52:00,85.0,76.0,30.32,SW,229,2.0,-999.0,75,-99.99,,,-99.99,,2013-07-17 14:52:00,
2013-07-17 11:02:00,85.0,76.0,30.31,WNW,290,2.0,-999.0,75,-99.99,,,-99.99,,2013-07-17 15:02:00,
2013-07-17 11:22:00,86.0,76.0,30.31,NE,51,2.0,-999.0,72,-99.99,,,-99.99,,2013-07-17 15:22:00,
2013-07-17 11:32:00,87.0,77.0,30.31,NE,49,1.0,-999.0,72,-99.99,,,-99.99,,2013-07-17 15:32:00,
2013-07-17 11:52:00,87.0,76.0,30.31,NNE,33,2.0,-999.0,70,-99.99,,,-99.99,,2013-07-17 15:52:00,
2013-07-17 12:22:00,88.0,76.0,30.31,NNE,29,2.0,-999.0,68,-99.99,,,-99.99,,2013-07-17 16:22:00,
2013-07-17 12:33:00,88.0,75.0,30.30,ENE,68,3.0,-999.0,66,-99.99,,,-99.99,,2013-07-17 16:33:00,
2013-07-17 12:42:00,89.0,76.0,30.30,North,355,2.0,-999.0,66,-99.99,,,-99.99,,2013-07-17 16:42:00,
2013-07-17 12:52:00,89.0,76.0,30.30,North,355,2.0,-999.0,66,-99.99,,,-99.99,,2013-07-17 16:52:00,
2013-07-17 13:22:00,90.0,75.0,30.29,NNE,16,2.0,-999.0,62,-99.99,,,-99.99,,2013-07-17 17:22:00,
2013-07-17 13:32:00,88.0,76.0,30.28,NE,49,0.0,-999.0,67,-99.99,,,-99.99,,2013-07-17 17:32:00,
2013-07-17 13:43:00,87.0,76.0,30.29,NE,49,0.0,-999.0,70,-99.99,,,-99.99,,2013-07-17 17:43:00,
2013-07-17 13:52:00,87.0,76.0,30.29,NE,49,0.0,-999.0,70,-99.99,,,-99.99,,2013-07-17 17:52:00,
2013-07-17 14:11:00,87.0,78.0,30.29,NE,49,0.0,-999.0,74,-99.99,,,-99.99,,2013-07-17 18:11:00,
2013-07-17 14:22:00,87.0,79.0,30.28,NE,49,0.0,-999.0,78,-99.99,,,-99.99,,2013-07-17 18:22:00,
2013-07-17 14:32:00,86.0,78.0,30.27,NE,49,0.0,-999.0,78,-99.99,,,-99.99,,2013-07-17 18:32:00,
2013-07-17 14:43:00,87.0,76.0,30.27,NE,49,0.0,-999.0,71,-99.99,,,-99.99,,2013-07-17 18:43:00,
2013-07-17 14:52:00,87.0,76.0,30.27,NE,49,0.0,-999.0,71,-99.99,,,-99.99,,2013-07-17 18:52:00,
2013-07-17 15:01:00,87.0,76.0,30.27,NE,49,1.0,-999.0,69,-99.99,,,-99.99,,2013-07-17 19:01:00,
2013-07-17 15:22:00,88.0,75.0,30.25,NE,55,0.0,-999.0,65,-99.99,,,-99.99,,2013-07-17 19:22:00,
2013-07-17 15:32:00,88.0,75.0,30.25,NE,55,0.0,-999.0,65,-99.99,,,-99.99,,2013-07-17 19:32:00,
2013-07-17 15:43:00,88.0,75.0,30.25,NE,55,0.0,-999.0,65,-99.99,,,-99.99,,2013-07-17 19:43:00,
2013-07-17 15:53:00,86.0,78.0,30.25,NE,55,0.0,-999.0,77,-99.99,,,-99.99,,2013-07-17 19:53:00,
2013-07-17 16:02:00,86.0,79.0,30.25,NE,55,0.0,-999.0,79,-99.99,,,-99.99,,2013-07-17 20:02:00,
2013-07-17 16:11:00,86.0,79.0,30.25,NE,55,0.0,-999.0,79,-99.99,,,-99.99,,2013-07-17 20:11:00,
2013-07-17 16:22:00,84.0,78.0,30.24,NE,56,1.0,-999.0,83,-99.99,,,-99.99,,2013-07-17 20:22:00,
2013-07-17 16:43:00,83.0,77.0,30.22,NE,56,1.0,-999.0,82,-99.99,,,-99.99,,2013-07-17 20:43:00,
2013-07-17 16:52:00,83.0,77.0,30.22,NE,56,0.0,-999.0,83,-99.99,,,-99.99,,2013-07-17 20:52:00,
2013-07-17 17:02:00,83.0,77.0,30.22,NE,56,0.0,-999.0,83,-99.99,,,-99.99,,2013-07-17 21:02:00,
2013-07-17 17:12:00,83.0,77.0,30.22,NE,56,0.0,-999.0,83,-99.99,,,-99.99,,2013-07-17 21:12:00,
2013-07-17 17:22:00,83.0,77.0,30.22,NE,56,0.0,-999.0,81,-99.99,,,-99.99,,2013-07-17 21:22:00,
2013-07-17 17:42:00,83.0,78.0,30.22,East,101,1.0,-999.0,84,-99.99,,,-99.99,,2013-07-17 21:42:00,
2013-07-17 17:52:00,83.0,78.0,30.22,East,101,1.0,-999.0,84,-99.99,,,-99.99,,2013-07-17 21:52:00,
2013-07-17 18:22:00,82.0,77.0,30.21,East,101,0.0,-999.0,84,-99.99,,,-99.99,,2013-07-17 22:22:00,
2013-07-17 18:32:00,82.0,77.0,30.22,ESE,110,1.0,-999.0,84,-99.99,,,-99.99,,2013-07-17 22:32:00,
2013-07-17 18:43:00,81.0,76.0,30.22,ESE,111,1.0,-999.0,85,-99.99,,,-99.99,,2013-07-17 22:43:00,
2013-07-17 18:53:00,81.0,76.0,30.22,ESE,111,1.0,-999.0,85,-99.99,,,-99.99,,2013-07-17 22:53:00,
2013-07-17 19:11:00,81.0,76.0,30.22,ESE,111,0.0,-999.0,85,-99.99,,,-99.99,,2013-07-17 23:11:00,
2013-07-17 19:22:00,81.0,76.0,30.20,ESE,111,0.0,-999.0,85,-99.99,,,-99.99,,2013-07-17 23:22:00,
2013-07-17 19:32:00,82.0,77.0,30.20,ESE,111,0.0,-999.0,85,-99.99,,,-99.99,,2013-07-17 23:32:00,
2013-07-17 19:52:00,82.0,77.0,30.20,ESE,111,0.0,-999.0,86,-99.99,,,-99.99,,2013-07-17 23:52:00,
2013-07-17 20:01:00,82.0,77.0,30.20,ESE,111,0.0,-999.0,86,-99.99,,,-99.99,,2013-07-18 00:01:00,
2013-07-17 20:11:00,81.0,77.0,30.20,East,101,0.0,-999.0,87,-99.99,,,-99.99,,2013-07-18 00:11:00,
2013-07-17 20:22:00,81.0,77.0,30.20,East,101,0.0,-999.0,87,-99.99,,,-99.99,,2013-07-18 00:22:00,
2013-07-17 20:33:00,80.0,76.0,30.20,ENE,69,0.0,-999.0,87,-99.99,,,-99.99,,2013-07-18 00:33:00,
2013-07-17 20:43:00,80.0,76.0,30.21,North,350,0.0,-999.0,88,-99.99,,,-99.99,,2013-07-18 00:43:00,
2013-07-17 20:52:00,80.0,76.0,30.21,North,350,0.0,-999.0,88,-99.99,,,-99.99,,2013-07-18 00:52:00,
2013-07-17 21:01:00,80.0,76.0,30.21,North,350,0.0,-999.0,88,-99.99,,,-99.99,,2013-07-18 01:01:00,
2013-07-17 21:22:00,79.0,76.0,30.22,North,350,0.0,-999.0,90,-99.99,,,-99.99,,2013-07-18 01:22:00,
2013-07-17 21:32:00,79.0,76.0,30.23,North,350,2.0,-999.0,90,-99.99,,,-99.99,,2013-07-18 01:32:00,
2013-07-17 21:43:00,78.0,75.0,30.23,North,350,0.0,-999.0,90,-99.99,,,-99.99,,2013-07-18 01:43:00,
2013-07-17 21:53:00,78.0,75.0,30.23,North,350,0.0,-999.0,90,-99.99,,,-99.99,,2013-07-18 01:53:00,
2013-07-17 22:22:00,77.0,74.0,30.23,North,350,0.0,-999.0,91,-99.99,,,-99.99,,2013-07-18 02:22:00,
2013-07-17 22:32:00,77.0,74.0,30.22,North,350,0.0,-999.0,92,-99.99,,,-99.99,,2013-07-18 02:32:00,
2013-07-17 22:52:00,76.0,74.0,30.23,North,350,0.0,-999.0,92,-99.99,,,-99.99,,2013-07-18 02:52:00,
2013-07-17 23:01:00,76.0,74.0,30.23,North,350,0.0,-999.0,92,-99.99,,,-99.99,,2013-07-18 03:01:00,
2013-07-17 23:11:00,76.0,74.0,30.23,North,350,0.0,-999.0,92,-99.99,,,-99.99,,2013-07-18 03:11:00,
2013-07-17 23:22:00,76.0,74.0,30.24,North,350,0.0,-999.0,93,-99.99,,,-99.99,,2013-07-18 03:22:00,
2013-07-17 23:43:00,76.0,74.0,30.24,North,350,0.0,-999.0,94,-99.99,,,-99.99,,2013-07-18 03:43:00,
2013-07-17 23:52:00,75.0,73.0,30.23,North,350,0.0,-999.0,94,-99.99,,,-99.99,,2013-07-18 03:52:00,